Showing default

LEMUR 2 WILSON, 62694

Orbit data source: Space-Track

LEMUR 2 WILSON, 62694 is a payload satellite owned by Spire (US) in SSO that was launched on Tue, 14 Jan 2025 UTC via an FALCON 9 launch vehicle from the Air Force Western Test Range (AFWTR). Payload-class satellites include a variety of spacecraft equipped with specific instruments for various scientific and technological missions. These include communications satellites like Starlink; space stations such as the ISS; scientific satellites like the Hubble; Earth observation satellites from companies like Planet Labs, Umbra, and HawkEye 360; GPS; miniature CubeSats for education and research; and military/defense satellites.

Loading next visibility...
Identifier
62694, 2025-009CP
Orbit
SSO
Country
Flag of USUS
Related business
Manufacturer
Spire/Glasgow
Mission
Operational Commercial Com/MetRO
Bus & Motor
CUBESAT 3U, Unknown motor
Mass
7.6 kg wet, 7.6 kg dry
Launch date (UTC)
2025-01-14 (1 year ago)
Launch vehicle
FALCON 9
Launch site
Air Force Western Test Range (AFWTR)
Object type
Payload
Rocket body
Debris
Shape & HBR
Box + 2 Pan, 0.5 m
Radar Cross Section
0.063 m², Medium (>0.1 m² and < 1m²)

Expand to show TLE details & history
Last TLE update: 14 hours ago

TLE from 14 hours ago
0 LEMUR 2 WILSON
1 62694U 25009CP  26035.22290553  .00003619  00000-0  34069-3 0  9991
2 62694  97.7127 116.0367 0004600 116.1939 243.9754 14.94460602 57491
Epoch: 2026-02-04T05:20Z
TLE epoch observation values (Epoch: 2026-02-04T05:20:59.037Z)
Latitude
-0.00012°
Longitude
-98.60185°
Altitude
588.501 km
Speed
7.565 km/s
True Right ascension
07h 44m 08s
True Declination
0° 00' 00"
Sunlit
Object was in full shadow at epoch
Visualization orbit readout
Latitude
Unknown
Longitude
Unknown
Altitude
Unknown
Speed
Unknown
Apparent Right ascension
Unknown
Apparent Declination
Unknown
Sunlit
N/A
Visualization observer readout
Local Sidereal Time
21:41:12
Azimuth
Unknown
Elevation
Unknown
Doppler factor
Unknown
Orbital elements
Apogee altitude
584.262 km
Perigee altitude
577.859 km
Semi-major axis
6,959.198 km
Eccentricity
0.00046
Inclination
97.7127°
RAAN
116.0367°
Arg. of periapsis
116.1939°
True anomaly
243.92804°
Mean anomaly
243.9754°
Eccentric anomaly
243.95172°
Mean motion
3.73856 °/min
Orbital period
96.29 mins
BSTAR
0.00034069
Loading maneuver chart data...
Computing Atmospheric mass density...
Loading historical data...
Loading historical data...
Loading historical data...
Loading historical data...
Loading historical data...
Loading historical data...
Loading historical data...

Documentation

Showing up to 5 results
|